Location: Unspecified
(49.9820°N, 20.4363°E)
Time: 22:12:03
(UTC+02:00)

ISS - Pass Details

Date: 20 July 2018
Orbit: 402 x 408 km, 51.6° (Epoch: 20 July)

Event Time Altitude Azimuth Distance (km) Brightness Sun altitude
Rises 23:46:25 0° 261° (W) 2,322 0.1 -18.3°
Reaches altitude 10° 23:48:30 10° 263° (W) 1,464 -0.9 -18.4°
Maximum altitude 23:51:47 74° 349° (N) 427 -3.7 -18.5°
Drops below altitude 10° 23:55:04 10° 75° (ENE) 1,470 -1.0 -18.6°
Sets 23:57:10 0° 77° (ENE) 2,333 0.1 -18.7°
